Temperature
24 23 23 23 24 24 24 24 23 23 24 24 23 23 23 22 22 21 21 20 20 20 20 19 19 19 18 18 18 18 17 17 17 17 17 17 17 16 16 16 16 16 16 16
23 23 24 25 25 24 24 24 23 24 24 24 23 23 23 23 22 22 21 21 20 20 20 19 19 19 18 18 18 18 17 17 17 17 17 17 16 16 16 16 16 16 16 16
23 24 25 25 24 24 24 24 23 23 24 24 23 22 23 23 23 22 22 21 21 21 20 19 19 19 19 18 18 18 18 17 17 17 17 16 16 16 16 16 16 16 16 16
24 25 25 24 24 24 23 24 24 24 22 22 23 21 22 23 22 22 22 22 21 21 20 19 19 19 19 18 18 18 18 17 17 17 17 17 16 16 16 16 16 16 16 16
24 25 24 24 24 24 24 25 24 24 23 22 23 23 23 23 22 22 22 22 21 21 20 20 19 19 18 18 18 18 18 17 17 17 17 16 16 16 16 16 16 16 16 15
24 25 25 24 25 25 25 24 24 24 23 21 23 23 22 23 23 23 23 22 21 21 20 20 19 19 18 18 18 18 18 18 17 17 17 16 16 16 16 16 16 16 15 15
23 24 25 25 24 24 24 23 21 21 21 22 24 23 23 24 25 24 23 22 22 21 20 20 19 19 18 18 18 18 18 17 17 17 17 16 16 16 16 16 16 16 16 15
22 22 24 24 24 23 24 23 21 21 21 22 24 23 23 25 25 24 23 22 21 21 20 20 19 19 18 18 18 17 17 17 17 17 17 16 16 16 16 16 16 16 16 16
23 22 24 24 24 24 23 23 24 22 23 23 23 24 24 24 24 24 23 22 22 21 20 20 19 19 18 18 18 17 17 17 17 17 17 17 16 16 16 16 16 16 16 16
23 22 23 24 24 24 24 24 23 22 21 21 22 23 22 23 23 23 23 22 22 21 20 20 19 19 18 18 18 17 17 17 17 17 17 17 16 16 16 16 16 16 16 15
23 22 22 23 22 23 23 23 23 22 22 21 21 21 24 24 24 23 23 22 22 21 20 20 19 18 18 18 17 17 17 17 17 17 17 16 16 16 16 16 16 16 15 15
23 22 21 22 23 24 23 23 23 21 21 22 21 21 24 24 24 24 23 22 22 21 20 19 19 18 18 17 17 17 17 17 17 17 16 16 16 16 16 15 15 15 15 15
22 21 20 21 22 23 22 23 23 23 22 21 21 22 24 24 24 23 23 22 21 20 20 19 19 18 18 17 17 17 17 17 17 16 16 16 16 16 16 15 15 15 15 15
21 21 21 20 21 21 21 22 23 23 21 21 22 22 23 23 23 22 22 21 21 20 19 19 18 18 18 17 17 17 17 17 16 16 16 16 16 16 15 15 15 15 15 15
22 21 21 22 22 22 21 22 22 22 22 22 22 23 23 23 23 22 22 21 20 20 19 18 18 18 17 17 17 17 17 17 16 16 16 16 16 16 15 15 15 15 15 15
22 21 21 21 22 22 22 22 22 22 23 22 23 23 23 23 22 22 22 21 20 19 19 18 18 17 17 17 17 17 17 16 16 16 16 16 16 15 15 15 15 15 15 15
21 21 20 20 22 22 21 22 22 22 23 23 22 23 23 23 22 22 21 20 19 19 18 18 18 17 17 17 17 17 16 16 16 16 16 16 15 15 15 15 15 15 15 15
21 20 20 20 20 19 21 23 23 23 23 24 23 23 23 23 22 21 21 20 19 19 18 18 17 17 17 17 17 17 16 16 16 16 16 15 15 15 15 15 15 15 14 14
22 20 19 19 19 20 22 23 23 22 22 24 23 23 23 22 22 21 20 20 19 18 18 17 17 17 17 17 17 16 16 16 16 16 15 15 15 15 15 15 15 14 14 14
21 21 19 19 18 19 21 23 23 23 21 23 23 23 22 22 20 20 20 20 19 18 18 17 17 17 17 17 17 16 16 16 16 16 15 15 15 15 15 15 15 14 14 14
19 19 19 19 19 20 22 22 23 21 21 22 22 22 22 22 21 20 20 19 19 18 18 17 17 17 17 17 16 16 16 16 16 15 15 15 15 15 15 14 14 14 14 14
19 19 19 19 18 19 21 22 21 21 22 22 22 22 22 21 20 20 19 19 18 18 17 17 17 16 16 16 16 16 16 16 15 15 15 15 15 15 14 14 14 14 14 13
19 19 19 19 19 20 20 21 21 21 21 21 21 21 21 20 20 19 19 18 18 17 17 16 16 16 16 16 16 15 15 15 15 15 15 15 14 14 14 14 14 13 13 13
19 20 19 19 19 19 20 20 20 20 20 20 20 20 20 20 19 19 19 18 17 17 17 16 16 16 16 16 15 15 15 15 15 15 14 14 14 14 14 14 13 13 13 13
18 19 18 18 19 19 19 19 19 19 20 20 20 20 19 19 19 19 18 18 17 17 16 16 16 15 15 15 15 15 15 15 14 14 14 13 13 13 13 13 13 13 13 13
19 18 18 18 19 19 19 19 18 19 19 19 19 19 19 19 19 18 18 18 17 17 16 16 15 15 15 15 15 14 14 14 14 13 13 13 13 13 13 13 13 13 12 12
Wind_Speed
8 6 5 5 7 7 5 4 2 2 3 4 5 5 6 7 7 7 8 8 8 9 10 10 8 7 7 7 8 7 6 4 4 3 3 2 2 2 2 2 2 2 3 4
6 7 6 5 6 7 7 5 2 2 3 4 4 5 6 8 8 7 8 9 9 9 10 10 9 7 7 7 8 8 7 6 5 3 3 3 2 1 2 2 3 3 3 4
8 4 5 7 7 7 7 5 4 3 4 6 5 5 7 7 8 7 8 9 10 10 10 11 10 9 7 8 7 8 8 7 6 5 3 3 2 1 2 3 2 3 4 4
6 5 6 7 7 7 6 4 5 5 5 5 7 5 6 8 9 9 9 8 9 9 10 10 10 9 8 8 8 8 8 8 7 7 5 4 3 2 3 2 1 1 4 4
4 5 7 7 6 6 5 4 7 8 7 7 9 6 4 8 9 10 9 9 9 10 10 11 10 9 8 7 6 6 7 7 7 7 6 4 3 3 3 3 2 2 3 3
6 5 5 5 5 6 6 7 8 9 7 8 8 5 2 4 7 9 10 10 10 10 10 10 9 8 7 7 6 5 6 6 6 7 7 5 5 4 4 4 3 2 2 1
7 8 6 5 7 6 7 5 3 5 6 6 5 4 2 2 4 7 9 9 9 9 10 11 10 9 7 8 7 6 6 7 6 6 6 7 6 5 5 4 3 2 2 2
6 6 7 6 7 6 7 7 5 3 3 4 5 3 3 4 3 4 7 9 9 9 9 10 10 9 8 8 7 7 7 7 7 6 6 7 7 4 3 4 4 3 3 3
5 3 4 4 5 7 7 7 7 7 8 6 4 4 4 6 5 4 7 8 9 9 8 10 11 10 9 9 7 7 8 7 7 7 6 6 7 5 4 4 3 3 3 3
5 5 4 4 6 8 8 6 5 5 4 4 3 3 3 5 6 6 7 8 8 8 8 9 10 9 9 8 8 7 7 8 7 7 5 5 6 6 5 4 4 3 3 3
7 6 5 5 6 7 8 8 6 4 5 4 3 1 1 3 4 5 7 7 8 9 8 8 9 9 9 8 7 7 6 6 7 7 6 6 6 6 5 4 4 3 3 4
5 5 6 6 6 5 8 8 7 5 5 6 5 1 0 2 3 3 6 6 7 8 8 8 8 8 8 8 8 8 7 7 6 6 6 6 6 6 5 5 4 4 4 3
4 5 5 4 5 6 7 9 9 7 6 6 5 2 1 2 3 4 5 5 6 8 8 8 7 8 8 8 7 7 7 6 7 6 7 7 6 6 6 5 4 4 4 4
4 8 8 7 4 4 7 9 9 9 7 7 7 4 3 2 3 4 5 5 6 7 7 7 7 6 7 7 7 6 6 6 7 6 6 6 6 6 5 4 3 3 4 4
6 9 11 10 9 8 9 11 10 10 9 9 7 6 3 2 2 4 5 6 7 8 8 8 7 6 6 7 7 7 7 7 7 7 6 6 6 6 5 5 4 3 3 4
8 9 10 11 12 11 12 13 12 12 11 11 10 7 2 2 2 3 5 6 6 7 7 8 8 7 7 7 7 7 6 7 7 7 7 6 6 6 6 5 4 4 3 3
7 9 9 10 10 11 12 10 11 11 11 10 9 5 2 2 3 3 4 6 6 6 6 6 7 7 6 7 7 6 6 6 7 7 7 7 7 6 6 5 5 4 4 4
10 10 7 8 9 11 5 4 7 9 10 8 6 3 2 2 3 3 4 6 6 6 6 6 6 6 6 6 7 7 7 7 7 7 7 7 7 7 6 5 5 4 4 4
11 9 6 6 8 8 7 5 5 7 8 6 5 5 3 3 3 2 4 6 6 6 6 6 6 6 6 6 7 7 8 8 7 7 7 8 8 7 7 7 6 4 5 4
10 9 8 7 7 7 4 2 3 6 7 3 3 4 4 4 4 3 4 5 6 6 5 5 5 5 5 6 6 7 7 7 7 7 7 7 7 7 7 7 6 5 5 5
8 9 11 10 9 7 3 1 3 5 2 0 2 3 4 4 3 4 5 5 6 7 5 5 5 5 5 6 6 7 7 7 7 6 6 6 7 7 7 6 5 6 5 5
8 7 9 8 9 6 1 3 3 1 1 0 0 1 3 3 3 5 6 7 7 7 6 5 5 4 5 6 7 6 6 6 6 7 6 6 6 6 6 6 5 5 6 6
6 5 4 4 4 1 0 1 1 2 2 1 0 2 3 4 4 5 6 7 7 7 7 5 5 4 4 5 6 6 5 6 6 7 7 6 6 5 6 7 6 5 5 5
5 4 4 5 4 3 3 2 2 3 3 3 2 2 2 3 4 5 5 6 6 6 6 6 5 5 4 4 5 6 6 6 7 7 6 6 6 6 6 5 5 5 5 5
4 4 6 7 5 3 3 3 4 4 3 2 1 1 1 2 4 4 4 6 6 6 6 6 5 5 4 4 4 5 6 7 7 7 6 6 5 5 5 4 3 4 3 5
8 7 7 6 5 4 3 3 4 4 3 2 1 1 2 2 3 3 3 4 6 6 6 6 6 5 5 5 5 5 5 6 7 6 6 5 5 5 5 6 4 5 3 5
Wind_Direction
211 221 225 221 231 256 255 242 220 227 230 222 214 194 189 182 190 188 182 181 186 183 171 164 165 162 152 155 150 148 152 140 117 105 107 97 84 77 81 95 92 80 77 73
217 223 227 234 235 246 250 253 240 236 230 252 237 220 205 192 192 192 190 185 189 184 173 164 166 164 162 163 159 156 160 148 131 126 123 119 109 106 86 54 52 47 63 66
225 218 221 237 242 249 248 252 243 240 249 253 252 232 203 189 182 191 195 189 188 186 176 169 173 169 167 169 169 163 158 153 147 142 117 109 92 88 88 66 38 33 51 62
228 229 237 240 247 256 256 259 253 242 241 247 235 245 210 189 186 192 193 188 184 180 175 168 171 171 175 173 169 163 162 160 157 149 153 155 152 151 133 125 124 62 57 59
233 228 238 242 248 258 264 263 256 250 254 263 247 243 211 183 190 190 188 185 183 179 177 170 171 174 173 165 163 167 160 158 155 156 158 162 157 146 133 127 126 105 73 66
247 248 260 258 255 252 255 261 254 244 247 254 243 239 214 199 186 181 182 180 180 178 172 165 165 166 165 158 161 169 156 153 149 155 159 167 149 141 134 134 138 129 118 106
232 224 223 237 247 240 246 249 254 229 217 238 229 226 191 142 149 167 174 176 173 171 171 168 167 166 159 156 160 163 155 149 155 164 167 164 154 160 159 149 149 146 134 122
239 228 212 219 239 243 246 241 242 259 256 252 234 207 157 136 127 144 160 165 170 171 169 167 165 162 160 156 160 165 161 160 166 174 172 157 155 158 156 155 156 159 151 147
266 243 197 223 244 253 250 248 258 276 284 271 223 177 155 140 149 149 156 163 171 171 167 167 164 164 161 159 163 168 167 167 171 177 170 164 159 152 154 154 148 148 152 148
278 275 227 214 236 234 254 265 257 253 276 274 261 225 181 160 165 165 168 170 166 164 166 163 162 164 163 162 166 172 178 175 173 170 169 155 146 144 147 140 141 144 138 143
268 261 242 216 229 237 230 240 243 256 260 271 279 280 190 157 160 169 167 163 162 165 167 161 161 164 161 158 163 171 178 173 169 169 163 151 147 143 138 138 147 147 149 152
259 273 260 237 231 258 264 256 249 247 260 265 270 238 336 128 130 143 150 153 156 156 153 152 154 155 157 162 169 174 177 172 168 166 161 154 151 146 145 149 159 159 156 153
277 264 265 244 221 220 245 249 249 250 256 260 261 212 158 120 128 132 143 148 148 146 148 149 150 160 162 163 168 172 171 166 162 163 157 158 159 153 155 162 167 165 157 149
273 258 262 263 272 265 258 255 248 248 249 255 260 250 201 178 157 151 144 147 143 142 146 146 150 159 157 162 168 169 168 163 158 157 156 159 155 147 150 146 147 157 146 143
250 255 263 269 272 267 269 268 256 250 250 259 268 268 242 186 157 155 143 142 149 149 150 151 154 157 159 166 170 168 163 160 161 157 162 161 152 142 139 138 144 141 134 136
243 257 262 263 259 259 259 255 253 250 250 251 260 261 227 188 183 154 142 142 146 151 157 161 164 161 166 169 167 163 160 163 162 160 161 149 141 135 136 143 143 134 129 124
240 255 266 265 263 265 256 246 241 244 247 248 251 251 223 205 176 167 156 148 154 155 155 159 165 165 172 174 170 165 166 162 162 162 151 144 144 142 147 147 133 133 134 124
245 249 259 267 268 257 255 229 234 246 253 250 248 223 226 210 162 158 147 147 150 156 158 162 169 165 172 175 170 167 161 164 165 160 154 154 151 150 146 138 141 151 141 129
240 243 253 263 264 265 254 235 233 239 248 244 233 217 209 184 179 165 144 144 151 157 159 162 165 166 170 169 166 164 162 167 164 162 161 158 155 153 151 151 157 157 142 136
233 234 237 245 255 262 262 208 238 246 245 230 227 217 198 189 194 184 160 143 146 144 147 152 158 164 164 163 161 163 166 165 165 164 162 159 154 155 159 162 160 146 141 147
218 224 230 239 249 258 271 195 213 232 227 198 234 216 190 197 174 155 137 127 125 125 134 142 149 157 158 158 157 164 166 166 162 156 153 153 153 156 158 158 154 149 149 146
225 224 227 231 238 241 276 204 210 282 17 53 73 183 145 128 126 135 130 126 129 126 132 138 140 142 146 151 152 157 161 158 150 147 148 151 150 155 155 149 151 155 152 151
233 233 242 238 241 256 293 302 348 338 304 330 46 108 147 144 142 139 137 134 135 137 140 143 143 143 147 151 153 157 152 143 144 146 150 151 151 153 154 155 160 160 156 159
249 248 246 255 247 259 271 273 291 309 325 354 35 95 160 158 148 142 140 139 141 144 145 146 144 146 153 155 147 145 143 146 149 150 152 153 155 157 157 156 160 162 167 169
257 246 248 260 260 265 279 305 326 331 329 333 10 91 144 157 153 151 152 150 149 149 148 148 151 159 164 154 146 139 147 154 155 155 153 153 151 153 151 138 138 157 166 175
250 249 242 254 274 272 271 290 293 296 308 307 321 195 189 178 155 147 145 144 152 157 155 154 155 162 165 160 157 152 155 157 158 159 158 155 152 150 146 137 117 78 106 128
Height
1499 1501 1502 1500 1499 1498 1498 1501 1505 1504 1500 1502 1505 1507 1508 1510 1512 1514 1517 1519 1521 1523 1526 1528 1531 1533 1535 1537 1539 1541 1543 1545 1546 1548 1549 1550 1552 1553 1554 1555 1556 1557 1558 1558
1500 1500 1497 1495 1495 1497 1498 1502 1504 1502 1499 1501 1504 1505 1504 1506 1508 1511 1514 1516 1519 1521 1524 1526 1529 1532 1534 1536 1538 1540 1542 1544 1546 1547 1549 1550 1552 1553 1554 1555 1556 1557 1558 1558
1498 1496 1494 1495 1495 1497 1497 1500 1502 1504 1501 1499 1503 1507 1503 1502 1505 1509 1511 1513 1516 1518 1521 1524 1527 1530 1533 1535 1537 1539 1541 1543 1545 1547 1549 1550 1551 1553 1554 1555 1556 1557 1558 1558
1493 1492 1493 1494 1495 1496 1500 1495 1497 1500 1506 1509 1505 1516 1504 1500 1502 1505 1508 1510 1513 1516 1519 1522 1525 1528 1531 1533 1536 1538 1540 1542 1544 1546 1548 1549 1551 1552 1554 1555 1556 1557 1558 1558
1492 1491 1492 1495 1494 1494 1496 1494 1495 1497 1502 1507 1502 1508 1504 1496 1501 1501 1504 1507 1510 1513 1516 1519 1523 1526 1529 1532 1535 1537 1539 1541 1543 1545 1547 1548 1550 1552 1553 1554 1555 1556 1557 1558
1489 1490 1491 1491 1491 1492 1493 1494 1495 1495 1502 1513 1500 1504 1506 1495 1494 1496 1500 1503 1507 1511 1514 1517 1521 1524 1527 1530 1533 1536 1538 1540 1542 1544 1545 1547 1549 1551 1552 1554 1555 1556 1557 1558
1492 1489 1489 1491 1493 1493 1494 1502 1514 1514 1516 1510 1491 1497 1500 1488 1487 1491 1495 1500 1504 1508 1511 1515 1519 1522 1525 1528 1531 1534 1537 1539 1541 1543 1544 1546 1548 1550 1551 1553 1554 1555 1557 1558
1496 1497 1488 1488 1491 1494 1493 1497 1513 1520 1515 1506 1492 1496 1492 1484 1486 1489 1493 1497 1501 1505 1509 1513 1516 1520 1523 1526 1529 1532 1535 1537 1539 1541 1543 1545 1547 1549 1551 1552 1553 1555 1556 1557
1493 1494 1486 1486 1488 1490 1494 1494 1492 1501 1500 1503 1494 1489 1486 1483 1486 1489 1492 1495 1499 1503 1506 1510 1514 1517 1521 1524 1527 1530 1533 1536 1538 1540 1542 1544 1546 1548 1549 1551 1553 1554 1555 1556
1487 1495 1488 1487 1488 1488 1489 1490 1495 1502 1512 1512 1501 1495 1494 1488 1487 1487 1491 1493 1497 1501 1505 1508 1511 1515 1518 1521 1525 1528 1531 1534 1536 1539 1541 1543 1545 1546 1548 1550 1552 1553 1554 1556
1486 1493 1492 1489 1490 1489 1489 1491 1492 1496 1499 1510 1512 1505 1482 1483 1484 1485 1488 1491 1495 1499 1502 1506 1509 1513 1516 1519 1523 1526 1529 1532 1535 1537 1539 1541 1543 1545 1547 1549 1551 1552 1554 1555
1487 1491 1494 1489 1483 1483 1485 1486 1490 1502 1502 1498 1504 1502 1479 1480 1481 1483 1486 1490 1493 1497 1500 1504 1507 1511 1514 1518 1521 1524 1527 1530 1532 1535 1537 1540 1542 1544 1546 1548 1550 1551 1553 1554
1488 1493 1499 1498 1492 1486 1486 1484 1484 1487 1494 1498 1503 1500 1480 1479 1482 1484 1486 1489 1492 1495 1499 1502 1505 1509 1512 1516 1519 1522 1525 1528 1530 1533 1536 1538 1540 1542 1544 1546 1548 1550 1552 1553
1489 1490 1495 1501 1494 1489 1489 1485 1483 1486 1495 1496 1493 1490 1483 1480 1482 1483 1485 1488 1491 1495 1498 1501 1504 1507 1511 1514 1517 1520 1523 1526 1529 1531 1534 1536 1539 1541 1543 1545 1547 1549 1551 1552
1487 1490 1487 1484 1483 1484 1486 1485 1483 1485 1485 1490 1487 1484 1480 1479 1481 1483 1485 1487 1490 1494 1497 1500 1502 1506 1509 1512 1515 1518 1521 1524 1527 1529 1532 1534 1537 1540 1542 1544 1546 1548 1550 1551
1484 1487 1486 1485 1481 1480 1482 1480 1479 1480 1480 1481 1480 1480 1476 1478 1481 1482 1484 1487 1490 1493 1496 1498 1501 1504 1507 1510 1513 1516 1519 1522 1525 1528 1530 1533 1535 1538 1540 1542 1544 1546 1548 1550
1483 1485 1488 1488 1480 1479 1483 1475 1475 1475 1473 1474 1478 1477 1475 1476 1479 1481 1483 1486 1489 1492 1494 1497 1499 1502 1505 1508 1511 1514 1517 1520 1523 1526 1528 1531 1533 1536 1538 1541 1543 1544 1546 1548
1481 1483 1485 1486 1486 1493 1476 1464 1467 1470 1469 1468 1470 1472 1473 1475 1478 1480 1482 1484 1487 1490 1492 1495 1498 1500 1503 1506 1509 1512 1515 1518 1521 1524 1526 1529 1531 1534 1536 1539 1541 1543 1545 1547
1475 1479 1485 1488 1489 1480 1469 1463 1464 1468 1469 1465 1467 1469 1472 1474 1477 1479 1481 1483 1486 1488 1491 1493 1496 1498 1501 1504 1507 1510 1513 1516 1519 1522 1524 1526 1529 1531 1534 1536 1538 1541 1543 1545
1472 1474 1482 1485 1490 1488 1470 1462 1462 1466 1470 1464 1465 1467 1470 1472 1477 1480 1480 1482 1484 1487 1489 1491 1494 1497 1499 1502 1505 1508 1511 1514 1516 1519 1522 1525 1527 1529 1532 1534 1536 1539 1541 1543
1475 1476 1480 1482 1484 1476 1464 1461 1462 1475 1472 1465 1465 1466 1468 1470 1474 1477 1478 1480 1483 1485 1488 1490 1492 1495 1497 1500 1503 1506 1509 1511 1514 1517 1520 1522 1525 1527 1530 1532 1534 1537 1539 1541
1471 1475 1476 1477 1482 1478 1463 1461 1465 1467 1464 1465 1465 1466 1467 1470 1473 1475 1477 1480 1482 1484 1487 1489 1491 1493 1496 1498 1500 1503 1506 1509 1512 1515 1518 1520 1522 1525 1528 1530 1532 1534 1536 1538
1466 1468 1469 1470 1471 1464 1463 1462 1464 1465 1465 1464 1465 1466 1467 1469 1472 1474 1477 1479 1481 1483 1485 1488 1490 1492 1494 1496 1499 1501 1504 1507 1509 1512 1515 1517 1520 1522 1525 1527 1529 1532 1534 1536
1463 1464 1466 1466 1464 1463 1463 1462 1463 1464 1464 1464 1464 1466 1467 1469 1471 1474 1476 1479 1481 1483 1485 1487 1489 1491 1493 1495 1497 1500 1502 1505 1507 1510 1513 1515 1517 1520 1522 1525 1527 1529 1531 1533
1464 1464 1465 1465 1462 1462 1461 1462 1463 1463 1463 1463 1464 1465 1467 1469 1471 1473 1475 1478 1480 1482 1484 1486 1487 1489 1491 1494 1496 1498 1500 1503 1505 1508 1510 1513 1515 1517 1519 1522 1524 1526 1529 1531
1461 1461 1463 1463 1461 1461 1461 1461 1462 1462 1462 1463 1464 1465 1466 1468 1470 1472 1474 1476 1478 1480 1482 1484 1486 1488 1490 1492 1494 1496 1498 1501 1503 1505 1508 1510 1512 1515 1517 1519 1521 1524 1526 1528